www.pogodaiklimat.ru

Погода и климат >> Архив погоды >> Австралия >> Port Keats Aero


ПОГОДА в Port Keats Aero

  • Прогноз погоды в Port Keats Aero
  • Монитор погоды в Port Keats Aero
  • Климат города

АРХИВ ПОГОДЫ в Port Keats Aero

Время (UTC), дата Ветер
(напр.,м/с)
 
Видим.   Явления Облачность Т
(С)
Тd
(С)
f
(%)
Тe
(С)
Тes
(С)
Комфортность P
(гПа)
Po
(гПа)
Тmin
(С)
Tmax
(С)
R
(мм)
R24
(мм)
S
(см)
14 16.04 Ю 2 н/о н/о +24.3 +22.2 88 +32 +32 очень
душно
1010.9 1007.6
15 16.04 Ю 2 н/о н/о +23.5 +21.6 89 +30 +30 очень
душно
1010.8 1007.5
17 16.04 Ю 2 н/о н/о +22.0 +20.1 89 +28 +28 душно 1009.9 1006.6
18 16.04 Ю 3 н/о н/о +24.0 +18.0 69 +28 +28 душно 1009.7 1006.4
20 16.04 ЮВ 4 н/о н/о +25.8 +14.0 48 +28 +28 жарко 1009.8 1006.5
21 16.04 ЮВ 4 н/о н/о +25.7 +13.2 46 +28 +28 жарко 1010.5 1007.2
23 16.04 ЮВ 4 н/о н/о +27.5 +12.3 39 +29 +29 жарко 1012.0 1008.7
00 17.04 ЮВ 4 н/о н/о +29.0 +13.6 39 +31 +31 жарко 1012.4 1009.1
02 17.04 В 4 н/о н/о +32.2 +14.8 35 +34 +34 душно 1011.8 1008.5
03 17.04 В 3 н/о н/о +33.6 +15.6 34 +36 +36 очень
душно
1010.8 1007.5
05 17.04 Ю 4 н/о н/о +34.7 +15.1 31 +36 +36 душно 1009.2 1005.9
06 17.04 В 3 н/о н/о +34.7 +12.4 26 +35 +35 очень
жарко
1008.7 1005.4
08 17.04 З 3 н/о н/о +32.4 +20.0 48 +39 +39 очень
душно
1008.7 1005.4
09 17.04 З 2 н/о н/о +30.0 +20.0 55 +36 +36 очень
душно
1009.1 1005.8
11 17.04 штиль 0 н/о н/о +25.7 +21.4 77 +33 +33 очень
душно
1010.3 1007.0
12 17.04 ЮЗ 2 н/о н/о +24.4 +21.1 82 +31 +31 очень
душно
1010.8 1007.5
14 17.04 ЮЗ 2 н/о н/о +23.6 +21.3 87 +30 +30 очень
душно
1010.7 1007.4
15 17.04 Ю 2 н/о н/о +23.5 +21.2 87 +30 +30 очень
душно
1010.5 1007.2
17 17.04 Ю 2 н/о н/о +22.6 +20.5 88 +29 +29 очень
душно
1009.8 1006.5
18 17.04 Ю 3 н/о н/о +22.7 +20.8 89 +30 +30 очень
душно
1009.5 1006.2
20 17.04 Ю 2 н/о н/о +22.2 +20.3 89 +28 +28 душно 1009.5 1006.2
21 17.04 В 2 н/о н/о +23.1 +21.7 92 +31 +31 очень
душно
1010.1 1006.8
23 17.04 ЮВ 3 н/о н/о +27.8 +18.5 57 +33 +33 очень
душно
1011.2 1007.9
00 18.04 ЮВ 3 н/о н/о +30.2 +19.6 53 +36 +36 очень
душно
1011.6 1008.3
02 18.04 В 4 н/о н/о +32.8 +19.7 46 +39 +39 очень
душно
1010.8 1007.5
03 18.04 В 4 н/о н/о +34.1 +17.8 38 +38 +38 очень
душно
1009.8 1006.5
05 18.04 В 4 н/о н/о +35.5 +17.2 34 +39 +39 очень
душно
1008.0 1004.7
06 18.04 В 3 н/о н/о +35.1 +15.9 32 +37 +37 очень
душно
1007.3 1004.0
08 18.04 З 3 н/о н/о +32.4 +21.6 53 +41 +41 опасность
перегрева
1007.4 1004.1
09 18.04 З 2 н/о н/о +30.3 +21.9 61 +39 +39 очень
душно
1007.8 1004.5
11 18.04 штиль 0 н/о н/о +27.1 +22.9 78 +36 +36 очень
душно
1009.2 1005.9
12 18.04 штиль 0 н/о н/о +26.2 +22.9 82 +35 +35 очень
душно
1009.9 1006.6
14 18.04 штиль 0 н/о н/о +25.6 +22.9 85 +34 +34 очень
душно
1010.0 1006.7
15 18.04 штиль 0 н/о н/о +25.2 +23.1 88 +34 +34 очень
душно
1009.9 1006.6
17 18.04 штиль 0 н/о н/о +24.5 +22.8 90 +32 +32 очень
душно
1009.0 1005.7
18 18.04 штиль 0 н/о н/о +25.5 +24.1 92 +35 +35 очень
душно
1008.9 1005.6
20 18.04 В 2 н/о н/о +25.7 +23.4 87 +35 +35 очень
душно
1009.6 1006.3
21 18.04 штиль 0 н/о н/о +25.1 +23.2 89 +34 +34 очень
душно
1009.9 1006.6
23 18.04 СВ 2 н/о н/о +28.1 +23.2 75 +38 +38 очень
душно
1010.6 1007.3
00 19.04 В 2 н/о н/о +30.5 +22.4 62 +40 +40 очень
душно
1010.9 1007.6
02 19.04 В 3 н/о н/о +32.7 +20.6 49 +40 +40 очень
душно
1010.3 1007.0
03 19.04 СВ 4 н/о н/о +33.3 +21.1 49 +41 +41 опасность
перегрева
1009.3 1006.0
05 19.04 С 5 н/о н/о +33.4 +22.2 52 +42 +42 опасность
перегрева
1008.2 1004.9
06 19.04 З 4 н/о н/о +32.5 +23.4 59 +43 +43 опасность
перегрева
1007.8 1004.5
08 19.04 З 3 н/о н/о +31.4 +23.5 63 +42 +42 опасность
перегрева
1007.9 1004.6
09 19.04 СЗ 3 н/о н/о +30.0 +23.4 68 +41 +41 опасность
перегрева
1008.5 1005.2
11 19.04 СЗ 2 н/о н/о +28.0 +23.6 77 +38 +38 очень
душно
1009.4 1006.1
12 19.04 штиль 0 н/о н/о +27.0 +23.7 82 +37 +37 очень
душно
1010.3 1007.0
14 19.04 штиль 0 н/о н/о +25.9 +23.6 87 +35 +35 очень
душно
1010.4 1007.1
15 19.04 штиль 0 н/о н/о +26.1 +24.1 89 +36 +36 очень
душно
1010.1 1006.8
17 19.04 штиль 0 н/о н/о +25.8 +24.0 90 +36 +36 очень
душно
1009.8 1006.5
18 19.04 В 3 н/о н/о +25.8 +23.8 89 +35 +35 очень
душно
1009.8 1006.5
20 19.04 штиль 0 н/о н/о +25.3 +23.0 87 +34 +34 очень
душно
1009.8 1006.5
21 19.04 ЮВ 1 н/о н/о +25.2 +23.1 88 +34 +34 очень
душно
1010.3 1007.0
23 19.04 В 3 н/о н/о +28.2 +22.9 73 +38 +38 очень
душно
1011.6 1008.3
00 20.04 ЮВ 3 н/о н/о +30.0 +23.7 69 +41 +41 опасность
перегрева
1012.3 1009.0
02 20.04 В 4 н/о н/о +33.0 +20.9 49 +40 +40 очень
душно
1011.5 1008.2
03 20.04 В 4 н/о н/о +33.8 +19.5 43 +39 +39 очень
душно
1010.7 1007.4
05 20.04 В 3 н/о н/о +34.6 +16.9 35 +38 +38 очень
душно
1008.9 1005.6
06 20.04 З 3 н/о н/о +33.2 +22.3 53 +42 +42 опасность
перегрева
1008.4 1005.1
08 20.04 З 3 н/о н/о +32.0 +23.0 59 +42 +42 опасность
перегрева
1008.2 1004.9
09 20.04 З 2 н/о н/о +30.4 +23.3 66 +41 +41 опасность
перегрева
1008.9 1005.6
11 20.04 ЮЗ 2 н/о н/о +26.9 +23.8 83 +37 +37 очень
душно
1010.0 1006.7
12 20.04 ЮЗ 1 н/о н/о +26.5 +23.8 85 +36 +36 очень
душно
1010.6 1007.3
14 20.04 Ю 2 н/о н/о +26.2 +23.9 87 +36 +36 очень
душно
1011.0 1007.7
15 20.04 Ю 2 н/о н/о +25.6 +23.3 87 +34 +34 очень
душно
1011.0 1007.7
17 20.04 Ю 2 н/о н/о +24.6 +22.7 89 +32 +32 очень
душно
1010.0 1006.7
18 20.04 С 2 н/о н/о +24.5 +22.8 90 +32 +32 очень
душно
1010.1 1006.8
20 20.04 штиль 0 н/о н/о +22.6 +20.9 90 +30 +30 очень
душно
1010.5 1007.2
21 20.04 штиль 0 н/о н/о +22.2 +20.8 92 +29 +29 очень
душно
1011.0 1007.7
23 20.04 В 2 н/о н/о +27.1 +21.8 73 +35 +35 очень
душно
1012.2 1008.9
00 21.04 В 3 н/о н/о +29.4 +20.3 58 +36 +36 очень
душно
1012.5 1009.2
02 21.04 СВ 5 н/о н/о +32.2 +16.5 39 +35 +35 очень
душно
1011.9 1008.6
03 21.04 В 4 н/о н/о +33.6 +18.1 40 +38 +38 очень
душно
1010.9 1007.6
05 21.04 В 3 н/о н/о +34.9 +15.7 32 +37 +37 очень
душно
1009.0 1005.7
06 21.04 В 2 н/о н/о +35.0 +15.3 31 +37 +37 очень
душно
1008.4 1005.1
08 21.04 З 3 н/о н/о +31.8 +21.3 54 +40 +40 очень
душно
1008.5 1005.2
09 21.04 З 1 н/о н/о +29.9 +21.6 61 +38 +38 очень
душно
1009.0 1005.7
11 21.04 З 1 н/о н/о +26.1 +22.2 79 +34 +34 очень
душно
1010.3 1007.0
12 21.04 штиль 0 н/о н/о +25.6 +22.3 82 +33 +33 очень
душно
1010.6 1007.3
14 21.04 штиль 0 н/о н/о +23.9 +21.4 86 +30 +30 очень
душно
1010.5 1007.2
15 21.04 штиль 0 н/о н/о +23.6 +21.1 86 +30 +30 очень
душно
1010.3 1007.0
17 21.04 штиль 0 н/о н/о +23.1 +21.0 88 +31 +31 очень
душно
1009.7 1006.4
18 21.04 штиль 0 н/о н/о +22.6 +20.7 89 +29 +29 очень
душно
1009.6 1006.3
20 21.04 штиль 0 н/о н/о +22.3 +20.9 92 +29 +29 очень
душно
1009.9 1006.6
21 21.04 штиль 0 н/о н/о +21.8 +20.3 91 +28 +28 душно 1010.3 1007.0
23 21.04 Ю 2 н/о н/о +26.7 +21.2 72 +34 +34 очень
душно
1011.5 1008.2
00 22.04 ЮВ 3 н/о н/о +30.4 +16.0 42 +33 +33 душно 1011.9 1008.6
02 22.04 В 5 н/о н/о +33.3 +12.9 29 +34 +34 очень
жарко
1011.4 1008.1
03 22.04 В 3 н/о н/о +34.4 +14.8 31 +36 +36 душно 1010.1 1006.8
05 22.04 В 2 н/о н/о +35.8 +15.5 30 +38 +38 очень
душно
1008.3 1005.0
06 22.04 З 4 н/о н/о +33.0 +17.6 40 +37 +37 очень
душно
1007.8 1004.5
08 22.04 З 3 н/о н/о +31.5 +18.8 47 +37 +37 очень
душно
1008.2 1004.9
09 22.04 З 2 н/о н/о +29.8 +19.2 53 +35 +35 очень
душно
1008.8 1005.5
11 22.04 ЮЗ 1 н/о н/о +25.9 +20.5 72 +32 +32 очень
душно
1010.0 1006.7
12 22.04 штиль 0 н/о н/о +25.0 +20.5 76 +31 +31 очень
душно
1010.4 1007.1
14 22.04 ЮЗ 1 н/о н/о +23.8 +20.5 82 +30 +30 очень
душно
1010.5 1007.2
15 22.04 штиль 0 н/о н/о +24.4 +21.1 82 +31 +31 очень
душно
1010.3 1007.0
17 22.04 штиль 0 н/о н/о +22.6 +19.9 85 +29 +29 очень
душно
1009.5 1006.2
18 22.04 Ю 1 н/о н/о +22.2 +20.3 89 +28 +28 душно 1009.5 1006.2
20 22.04 штиль 0 н/о н/о +22.1 +20.6 91 +28 +28 душно 1010.1 1006.8
21 22.04 штиль 0 н/о н/о +21.9 +20.4 91 +28 +28 душно 1010.4 1007.1
23 22.04 штиль 0 н/о н/о +27.2 +21.7 72 +35 +35 очень
душно
1011.5 1008.2
00 23.04 С 2 н/о н/о +29.7 +22.2 64 +39 +39 очень
душно
1011.8 1008.5
02 23.04 СЗ 2 н/о н/о +32.8 +20.7 49 +40 +40 очень
душно
1011.8 1008.5
03 23.04 С 2 н/о н/о +34.3 +19.5 42 +40 +40 очень
душно
1010.7 1007.4
05 23.04 З 4 н/о н/о +31.6 +21.2 54 +39 +39 очень
душно
1008.9 1005.6
06 23.04 З 3 н/о н/о +31.8 +22.5 58 +41 +41 опасность
перегрева
1008.3 1005.0
08 23.04 З 4 н/о н/о +31.5 +22.2 58 +41 +41 опасность
перегрева
1007.9 1004.6
09 23.04 З 2 н/о н/о +29.8 +22.3 64 +39 +39 очень
душно
1008.6 1005.3
11 23.04 штиль 0 н/о н/о +26.4 +22.5 79 +35 +35 очень
душно
1009.6 1006.3
12 23.04 штиль 0 н/о н/о +25.8 +22.5 82 +34 +34 очень
душно
1010.0 1006.7

 

Местоположение метеостанции Port Keats Aero (Северная территория, Австралия): широта -14.25 долгота 129.53 высота над уровнем моря 29 м.

В архиве по умолчанию представлена погода в Port Keats Aero за последнюю неделю. Архивные данные за месяц целиком и за предыдущие месяцы, начиная с января 2011 года, Вы можете получить, выбрав интересующий диапазон дат из раскрывающегося списка и нажав кнопку "Ввод!".


*Определитесь, кто Вы:
робот инопланетянин человек

Внимание! Время в таблицах - всемирное. Для получения местного времени необходимо прибавить поправку, которая в Port Keats Aero равна 9.5 ч.

Смотрите также архив погоды в соседних городах и на ближайших метеорологических станциях:

Погода в Manbulloo Csiro (Северная территория, Австралия) (157 км)
Погода в Cape Don Lighthouse (Северная территория, Австралия) (184 км)
Погода в Kununurra (Западная Австралия, Австралия) (192 км)
Погода в Dum In Mirrie (Северная территория, Австралия) (202 км)
Погода в Wyndham Aero (Западная Австралия, Австралия) (203 км)
Погода в Batchelor Fld (Северная территория, Австралия) (209 км)
Погода в Darwin (Северная территория, Австралия) (251 км)
Погода в Middle Point Aws (Северная территория, Австралия) (265 км)
Погода в Bathurst Island (Северная территория, Австралия) (280 км)
Погода в Victoria River Downs (Северная территория, Австралия) (288 км)

Пояснения к столбцам:

Ветер - указаны скорость ветра в м/с - средняя за 10 мин, порывы в срок и между сроками (в фигурных скобках) и направление, откуда дует ветер: С - северный, СВ - северо-восточный, В - восточный, ЮВ - юго-восточный, Ю - южный, ЮЗ - юго-западный, З - западный, СЗ - северо-западный.
Видимость - горизонтальная дальность видимости в метрах или километрах. При видимости от 1 до 10 км при отсутствии осадков обычно наблюдается дымка, при ухудшении видимости до 1 км и менее - туман. В сухую погоду видимость может ухудшаться дымом, пылью или мглою.
Явления - указаны атмосферные явления, наблюдавшиеся в срок или в последний час перед сроком; фигурными скобками обозначены явления, наблюдавшиеся между сроками (за 1-3 часа до срока); квадратными скобками обозначены град или гололедные отложения с указанием их диаметра в мм.
Облачность - указаны через наклонную черту общая и нижняя облачность в баллах и высота нижней границы облаков в метрах; квадратными скобками обозначены формы облаков: Ci - перистые, Cs - перисто-слоистые, Cc - перисто-кучевые, Ac - высококучевые, As - высокослоистые, Sc - слоисто-кучевые, Ns - слоисто-дождевые, Cu - кучевые, Cb - кучево-дождевые. Подробнее классификацию облаков см. в Атласе облаков (PDF).
T - Температура воздуха - температура, измеренная на высоте 2 м над землей.
Td - Температура точки росы - температура, при понижении до которой содержащийся в воздухе водяной пар достигнет насыщения.
f - Относительная влажность воздуха - влажноcть воздуха, измеренная на высоте 2 м над землей.
Te - Эффективная температура - температура, которую ощущает одетый по сезону человек в тени. Характеристика душности погоды. При расчете учитывается влияние влажности воздуха и скорости ветра на теплоощущения человека.
Tes - Эффективная температура на солнце - температура, которую ощущает человек, с поправкой на солнечный нагрев. Характеристика знойности погоды. Зависит от высоты солнца над горизонтом, облачности и скорости ветра. Ночью, в пасмурную погоду, а также при ветре 12 м/с и более поправка равна нулю.
P - Атмосферное давление - приведенное к уровню моря атмосферное давление.
Po - Атмосферное давление - измеренное на уровне метеостанции атмосферное давление.
Tmin - Минимальная температура - минимум температуры воздуха на высоте 2 м над землей.
Tmax - Максимальная температура - максимум температуры воздуха на высоте 2 м над землей.
R - Количество осадков - Количество выпавших осадков за период времени, мм. При наведении курсора мыши на число - период времени, за который выпало указанное количество осадков.
R24 - Количество осадков - Количество выпавших осадков за 24 часа, мм.
S - Снежный покров - Высота снежного покрова, см. При наведении курсора мыши на число - состояние снежного покрова и степень покрытия местности в баллах.